Location: Del Amo
(33.8464°N, 118.2104°W)
Time: 03:34:34
(UTC+00:00)

S-56A Canister/Altair - Pass Details

Date: 14 September 2024
Orbit: 636 x 2487 km, 38.9° (Epoch: 05 October)

Event Time Altitude Azimuth Distance (km) Brightness Sun altitude
Rises 23:44:57 0° 190° (S) 2,922 10.8 26.9°
Reaches altitude 10° 23:48:28 10° 159° (SSE) 2,110 9.8 26.2°
Maximum altitude 23:50:30 13° 133° (SE) 2,031 9.5 25.8°
Drops below altitude 10° 23:52:41 10° 108° (ESE) 2,328 9.6 25.4°
Sets 23:57:03 0° 81° (E) 3,582 10.4 24.5°
